Overview Statistics Trail Chart Weather Telemetry Raw packets
 

This is the latest recevied weather packets stored in our database for station/object DJ2KUA-6. If no packets are shown the sender has not sent any weather packets the latest 10 day(s).

<< 1 2 3 4 >>
Time Temp. Humidity Pressure Rain* Wind** Luminosity Snow
1788653631 13.89° C 71% 1079 hPa 0 mm - - -
1788652494 14.44° C 69% 1079 hPa 0 mm - - -
1788651352 14.44° C 68% 1079 hPa 0 mm - - -
1788650212 15° C 66% 1078 hPa 0 mm - - -
1788649077 15.56° C 64% 1078 hPa 0 mm - - -
1788647932 16.11° C 62% 1078 hPa 0 mm - - -
1788646793 16.67° C 62% 1078 hPa 0 mm - - -
1788645653 16.67° C 61% 1078 hPa 0 mm - - -
1788644512 17.22° C 60% 1078 hPa 0 mm - - -
1788643372 17.22° C 58% 1078 hPa 0 mm - - -
1788642233 17.78° C 57% 1078 hPa 0 mm - - -
1788641092 18.33° C 54% 1077 hPa 0 mm - - -
1788639953 18.89° C 53% 1077 hPa 0 mm - - -
1788638813 18.89° C 53% 1077 hPa 0 mm - - -
1788637675 18.33° C 54% 1077 hPa 0 mm - - -
1788636535 18.89° C 51% 1077 hPa 0 mm - - -
1788635393 19.44° C 49% 1077 hPa 0 mm - - -
1788633115 21.11° C 44% 1076 hPa 0 mm - - -
1788631972 21.67° C 42% 1076 hPa 0 mm - - -
1788630835 22.78° C 40% 1076 hPa 0 mm - - -
1788629693 23.89° C 38% 1076 hPa 0 mm - - -
1788628555 24.44° C 37% 1075 hPa 0 mm - - -
1788627413 25° C 36% 1075 hPa 0 mm - - -
1788626276 25.56° C 36% 1075 hPa 0 mm - - -
1788625134 26.11° C 35% 1075 hPa 0 mm - - -

* Rain latest hour (hover to see other rain measurements)
** Current wind speed in m/s (hover to see current wind gust speed)